Showing default

FLOCK 4G 22, 62645

Orbit data source: Space-Track

FLOCK 4G 22, 62645 is a payload satellite in SSO that was launched on Tue, 14 Jan 2025 UTC via an FALCON 9 launch vehicle from the Air Force Western Test Range (AFWTR). Payload-class satellites include a variety of spacecraft equipped with specific instruments for various scientific and technological missions. These include communications satellites like Starlink; space stations such as the ISS; scientific satellites like the Hubble; Earth observation satellites from companies like Planet Labs, Umbra, and HawkEye 360; GPS; miniature CubeSats for education and research; and military/defense satellites.

Loading next visibility...
Identifier
62645, 2025-009AN
Orbit
SSO
Last TLE update
1 day ago
Origin
Manufacturer
Planet
Mission
Operational Commercial Imaging
Bus & Motor
CUBESAT 3U, Unknown motor
Mass
5.7 kg wet, 5.7 kg dry
Launch date (UTC)
2025-01-14 (4 months ago)
Launch vehicle
FALCON 9
Launch site
Air Force Western Test Range (AFWTR)
Object type
Payload
Rocket body
Debris
Shape & HBR
Box + 2 Pan, 0.3 m
Radar Cross Section
0.035 m², Medium (>0.1 m² and < 1m²)

Expand to show TLE details & history

TLE from 1 day ago
0 FLOCK 4G 22
1 62645U 25009AN  25139.19474155  .00006876  00000-0  31527-3 0  9993
2 62645  97.4312 219.9966 0001888 208.7601 151.3530 15.20764749 18880
Epoch: 2025-05-19T04:40Z
TLE epoch observation values (Epoch: 2025-05-19T04:40:25.669Z)
Latitude
-0.00012°
Longitude
-87.22119°
Altitude
507.764 km
Speed
7.61 km/s
True Right ascension
14h 39m 59s
True Declination
0° 00' 00"
Sunlit
Object was in full shadow at epoch
Visualization orbit readout
Latitude
32.06432°
Longitude
98.8936°
Altitude
506.98 km
Speed
7.614 km/s
Apparent Right ascension
06h 52m 25s
Apparent Declination
-8° 03' 51"
Sunlit
Object is in daylight
Visualization observer readout
Local Sidereal Time
00:57:32
Azimuth
97.013° ESE
Elevation
-4.19°
Doppler factor
1
Orbital elements
Apogee altitude
501.797 km
Perigee altitude
499.2 km
Semi-major axis
6,878.635 km
Eccentricity
0.00019
Inclination
97.4312°
RAAN
219.9966°
Arg. of periapsis
208.7601°
True anomaly
Unknown
Mean anomaly
151.353°
Eccentric anomaly
Unknown
Mean motion
3.80443 °/min
Orbital period
94.63 mins
BSTAR
0.00031527
Loading maneuver chart data...
Loading SW <> Apogee altitude chart data...
Loading historical data...
Loading historical data...
Loading historical data...
Loading historical data...
Loading historical data...
Loading historical data...
Loading historical data...

FLOCK 4G 22 Visibility forecast

Observer location: undefined°, undefined°

Span
Click to sort rows by Start time (UTC) header in descending order
Start Az.
Max El. time (UTC)
Max El. Az.
Max El.
End time (UTC)
End Az.
6 mins2025-05-20 17:33:45.300Z39.387° NE2025-05-20 17:36:45.300Z97.022° ESE23.418°2025-05-20 17:39:45.300Z153.485° SSE
5 mins2025-05-21 05:45:45.300Z194.938° SSW2025-05-21 05:47:45.300Z246.152° WSW35.061°2025-05-21 05:50:45.300Z330.533° NNW
|